,,,PA_Meas_PMT16A,,PR_Meas_QMR101_102,,RH_Meas_QMH101,,SR_Meas_QMS101,,TA_Meas_QMH101,,GenWind,,GenWind,
date,time,status,PA,status,PR,status,RH,status,SR,status,TA,status,DirAvg,status,SpdAvg,
2014-08-02, 00:00:04,VALID,1010.43,VALID,0,VALID,102.871,VALID,0.112112,VALID,23.9668,VALID,192,VALID,0,
2014-08-02, 00:01:04,VALID,1010.42,VALID,0,VALID,102.887,VALID,0.112112,VALID,23.9455,VALID,192,VALID,0,
2014-08-02, 00:02:04,VALID,1010.38,VALID,0,VALID,102.826,VALID,0.112112,VALID,23.9668,VALID,192,VALID,0,
2014-08-02, 00:03:04,VALID,1010.34,VALID,0,VALID,102.833,VALID,0.112112,VALID,23.926,VALID,192,VALID,0,
2014-08-02, 00:04:04,VALID,1010.37,VALID,0,VALID,102.803,VALID,0.112112,VALID,23.926,VALID,192,VALID,0,
2014-08-02, 00:05:04,VALID,1010.36,VALID,0,VALID,102.772,VALID,0.112112,VALID,23.9065,VALID,192,VALID,0,
2014-08-02, 00:06:04,VALID,1010.38,VALID,0,VALID,102.734,VALID,0.112112,VALID,23.9065,VALID,192,VALID,0,
2014-08-02, 00:07:04,VALID,1010.37,VALID,0,VALID,102.719,VALID,0.112112,VALID,23.8871,VALID,192,VALID,0,
2014-08-02, 00:08:04,VALID,1010.39,VALID,0,VALID,102.788,VALID,0.112112,VALID,23.8871,VALID,192,VALID,0,
2014-08-02, 00:09:04,VALID,1010.39,VALID,0,VALID,102.841,VALID,0.112112,VALID,23.8889,VALID,192,VALID,0,
2014-08-02, 00:10:04,VALID,1010.4,VALID,0,VALID,102.925,VALID,0.112112,VALID,23.8676,VALID,192,VALID,0,
2014-08-02, 00:11:04,VALID,1010.4,VALID,0,VALID,102.993,VALID,0.112112,VALID,23.8676,VALID,192,VALID,0,
2014-08-02, 00:12:04,VALID,1010.38,VALID,0,VALID,103.093,VALID,0.112112,VALID,23.8871,VALID,192,VALID,0,
2014-08-02, 00:13:04,VALID,1010.33,VALID,0,VALID,103.184,VALID,0.112112,VALID,23.8871,VALID,192,VALID,0,
2014-08-02, 00:14:04,VALID,1010.3,VALID,0,VALID,103.237,VALID,0.112112,VALID,23.9084,VALID,192,VALID,0,
2014-08-02, 00:15:04,VALID,1010.31,VALID,0,VALID,103.298,VALID,0.112112,VALID,23.9065,VALID,192,VALID,0,
2014-08-02, 00:16:04,VALID,1010.28,VALID,0,VALID,103.337,VALID,0,VALID,23.9065,VALID,192,VALID,0,
2014-08-02, 00:17:05,VALID,1010.27,VALID,0,VALID,103.367,VALID,0.112112,VALID,23.926,VALID,192,VALID,0,
2014-08-02, 00:18:05,VALID,1010.28,VALID,0,VALID,103.367,VALID,0,VALID,23.926,VALID,192,VALID,0,
2014-08-02, 00:19:05,VALID,1010.29,VALID,0,VALID,103.413,VALID,0.112112,VALID,23.9668,VALID,192,VALID,0,
2014-08-02, 00:20:05,VALID,1010.29,VALID,0,VALID,103.451,VALID,0.112112,VALID,24.0058,VALID,192,VALID,0,
2014-08-02, 00:21:05,VALID,1010.3,VALID,0,VALID,103.443,VALID,0.112112,VALID,23.9845,VALID,192,VALID,0,
2014-08-02, 00:22:05,VALID,1010.3,VALID,0,VALID,103.375,VALID,0.112112,VALID,23.9845,VALID,192,VALID,0,
2014-08-02, 00:23:05,VALID,1010.29,VALID,0,VALID,103.306,VALID,0.112112,VALID,24.004,VALID,192,VALID,0,
2014-08-02, 00:24:05,VALID,1010.32,VALID,0,VALID,103.222,VALID,0.112112,VALID,24.004,VALID,192,VALID,0,
2014-08-02, 00:25:05,VALID,1010.32,VALID,0,VALID,103.169,VALID,0,VALID,24.0253,VALID,192,VALID,0,
2014-08-02, 00:26:05,VALID,1010.32,VALID,0,VALID,103.154,VALID,0.112112,VALID,24.004,VALID,192,VALID,0,
2014-08-02, 00:27:05,VALID,1010.3,VALID,0,VALID,103.154,VALID,0,VALID,24.0058,VALID,192,VALID,0,
2014-08-02, 00:28:05,VALID,1010.31,VALID,0,VALID,103.176,VALID,0.112112,VALID,24.0253,VALID,192,VALID,0,
2014-08-02, 00:29:05,VALID,1010.27,VALID,0,VALID,103.154,VALID,0,VALID,23.9845,VALID,192,VALID,0,
2014-08-02, 00:30:05,VALID,1010.25,VALID,0,VALID,103.131,VALID,0,VALID,24.0058,VALID,192,VALID,0,
2014-08-02, 00:31:05,VALID,1010.22,VALID,0,VALID,103.161,VALID,0,VALID,24.0058,VALID,192,VALID,0,
2014-08-02, 00:32:05,VALID,1010.18,VALID,0,VALID,103.161,VALID,0,VALID,24.0058,VALID,192,VALID,0,
2014-08-02, 00:33:05,VALID,1010.16,VALID,0,VALID,103.161,VALID,0.112112,VALID,23.965,VALID,192,VALID,0,
2014-08-02, 00:34:05,VALID,1010.15,VALID,0,VALID,103.138,VALID,0,VALID,23.9863,VALID,192,VALID,0,
2014-08-02, 00:35:05,VALID,1010.12,VALID,0,VALID,103.123,VALID,0,VALID,23.9668,VALID,192,VALID,0,
2014-08-02, 00:36:05,VALID,1010.15,VALID,0,VALID,103.093,VALID,0,VALID,23.9668,VALID,192,VALID,0,
2014-08-02, 00:37:05,VALID,1010.16,VALID,0,VALID,103.131,VALID,0,VALID,23.926,VALID,192,VALID,0,
2014-08-02, 00:38:05,VALID,1010.13,VALID,0,VALID,103.146,VALID,0,VALID,23.9065,VALID,192,VALID,0,
2014-08-02, 00:39:05,VALID,1010.11,VALID,0,VALID,103.161,VALID,0.112112,VALID,23.9065,VALID,192,VALID,0,
2014-08-02, 00:40:05,VALID,1010.1,VALID,0,VALID,103.215,VALID,0.112112,VALID,23.9084,VALID,192,VALID,0,
2014-08-02, 00:41:05,VALID,1010.08,VALID,0,VALID,103.245,VALID,0,VALID,23.8889,VALID,192,VALID,0,
2014-08-02, 00:42:05,VALID,1010.1,VALID,0,VALID,103.298,VALID,0,VALID,23.8889,VALID,192,VALID,0,
2014-08-02, 00:43:05,VALID,1010.11,VALID,0,VALID,103.352,VALID,0,VALID,23.8694,VALID,192,VALID,0,
2014-08-02, 00:44:05,VALID,1010.11,VALID,0,VALID,103.352,VALID,0.112112,VALID,23.8481,VALID,192,VALID,0,
2014-08-02, 00:45:05,VALID,1010.12,VALID,0,VALID,103.405,VALID,0,VALID,23.8499,VALID,192,VALID,0,
2014-08-02, 00:46:05,VALID,1010.09,VALID,0,VALID,103.451,VALID,0,VALID,23.8091,VALID,192,VALID,0,
2014-08-02, 00:47:05,VALID,1010.11,VALID,0,VALID,103.535,VALID,0,VALID,23.8091,VALID,192,VALID,0,
2014-08-02, 00:48:05,VALID,1010.11,VALID,0,VALID,103.558,VALID,0,VALID,23.8304,VALID,192,VALID,0,
2014-08-02, 00:49:05,VALID,1010.12,VALID,0,VALID,103.588,VALID,0,VALID,23.7896,VALID,192,VALID,0,
2014-08-02, 00:50:05,VALID,1010.09,VALID,0,VALID,103.634,VALID,0,VALID,23.7914,VALID,192,VALID,0,
2014-08-02, 00:51:05,VALID,1010.09,VALID,0,VALID,103.649,VALID,0,VALID,23.7507,VALID,192,VALID,0,
2014-08-02, 00:52:05,VALID,1010.1,VALID,0,VALID,103.703,VALID,0,VALID,23.772,VALID,192,VALID,0,
2014-08-02, 00:53:05,VALID,1010.12,VALID,0,VALID,103.687,VALID,0,VALID,23.772,VALID,192,VALID,0,
2014-08-02, 00:54:05,VALID,1010.06,VALID,0,VALID,103.718,VALID,0.112112,VALID,23.7117,VALID,192,VALID,0,
2014-08-02, 00:55:05,VALID,1010.02,VALID,0,VALID,103.741,VALID,0,VALID,23.7312,VALID,192,VALID,0,
2014-08-02, 00:56:05,VALID,1010.01,VALID,0,VALID,103.787,VALID,0,VALID,23.7117,VALID,192,VALID,0,
2014-08-02, 00:57:05,VALID,1009.98,VALID,0,VALID,103.825,VALID,0.112112,VALID,23.7117,VALID,192,VALID,0,
2014-08-02, 00:58:05,VALID,1010,VALID,0,VALID,103.848,VALID,0,VALID,23.7135,VALID,192,VALID,0,
2014-08-02, 00:59:05,VALID,1009.99,VALID,0,VALID,103.855,VALID,0.112112,VALID,23.6922,VALID,192,VALID,0,
2014-08-02, 01:00:05,VALID,1009.99,VALID,0,VALID,103.886,VALID,0.112112,VALID,23.6922,VALID,192,VALID,0,
2014-08-02, 01:01:05,VALID,1009.99,VALID,0,VALID,103.939,VALID,0,VALID,23.6922,VALID,192,VALID,0,
2014-08-02, 01:02:05,VALID,1009.98,VALID,0,VALID,103.947,VALID,0.112112,VALID,23.6727,VALID,192,VALID,0,
2014-08-02, 01:03:05,VALID,1009.93,VALID,0,VALID,103.992,VALID,0.112112,VALID,23.6532,VALID,192,VALID,0,
2014-08-02, 01:04:05,VALID,1009.93,VALID,0,VALID,104,VALID,0.112112,VALID,23.6532,VALID,192,VALID,0,
2014-08-02, 01:05:05,VALID,1009.91,VALID,0,VALID,103.992,VALID,0.112112,VALID,23.6338,VALID,192,VALID,0,
2014-08-02, 01:06:05,VALID,1009.92,VALID,0,VALID,103.97,VALID,0.112112,VALID,23.6143,VALID,192,VALID,0,
2014-08-02, 01:07:05,VALID,1009.9,VALID,0,VALID,104,VALID,0,VALID,23.6161,VALID,192,VALID,0,
2014-08-02, 01:08:05,VALID,1009.93,VALID,0,VALID,104,VALID,0.112112,VALID,23.6161,VALID,192,VALID,0,
2014-08-02, 01:09:05,VALID,1009.9,VALID,0,VALID,104,VALID,0.112112,VALID,23.5966,VALID,192,VALID,0,
2014-08-02, 01:10:05,VALID,1009.92,VALID,0,VALID,104,VALID,0,VALID,23.5948,VALID,192,VALID,0,
2014-08-02, 01:11:05,VALID,1009.9,VALID,0,VALID,104,VALID,0,VALID,23.5966,VALID,192,VALID,0,
2014-08-02, 01:12:05,VALID,1009.89,VALID,0,VALID,104,VALID,0,VALID,23.5771,VALID,192,VALID,0,
2014-08-02, 01:13:05,VALID,1009.9,VALID,0,VALID,104,VALID,0,VALID,23.5576,VALID,192,VALID,0,
2014-08-02, 01:14:05,VALID,1009.88,VALID,0,VALID,104,VALID,0.112112,VALID,23.5169,VALID,192,VALID,0,
2014-08-02, 01:15:05,VALID,1009.88,VALID,0,VALID,104,VALID,0,VALID,23.5186,VALID,192,VALID,0,
2014-08-02, 01:16:05,VALID,1009.9,VALID,0,VALID,104,VALID,0,VALID,23.4992,VALID,192,VALID,0,
2014-08-02, 01:17:05,VALID,1009.89,VALID,0,VALID,104,VALID,0,VALID,23.4797,VALID,192,VALID,0,
2014-08-02, 01:18:05,VALID,1009.91,VALID,0,VALID,104,VALID,0,VALID,23.4797,VALID,192,VALID,0,
2014-08-02, 01:19:05,VALID,1009.92,VALID,0,VALID,104,VALID,0,VALID,23.4797,VALID,192,VALID,0,
2014-08-02, 01:20:05,VALID,1009.94,VALID,0,VALID,104,VALID,0,VALID,23.4584,VALID,192,VALID,0,
2014-08-02, 01:21:05,VALID,1009.95,VALID,0,VALID,104,VALID,0,VALID,23.4602,VALID,192,VALID,0,
2014-08-02, 01:22:05,VALID,1009.92,VALID,0,VALID,104,VALID,0,VALID,23.4602,VALID,192,VALID,0,
2014-08-02, 01:23:05,VALID,1009.92,VALID,0,VALID,104,VALID,0.112112,VALID,23.4194,VALID,192,VALID,0,
2014-08-02, 01:24:05,VALID,1009.89,VALID,0,VALID,104,VALID,0.112112,VALID,23.4194,VALID,192,VALID,0,
2014-08-02, 01:25:05,VALID,1009.85,VALID,0,VALID,104,VALID,0,VALID,23.4017,VALID,192,VALID,0,
2014-08-02, 01:26:05,VALID,1009.86,VALID,0,VALID,104,VALID,0,VALID,23.4035,VALID,192,VALID,0,
2014-08-02, 01:27:05,VALID,1009.83,VALID,0,VALID,104,VALID,0,VALID,23.4017,VALID,192,VALID,0,
2014-08-02, 01:28:05,VALID,1009.86,VALID,0,VALID,104,VALID,0,VALID,23.4017,VALID,192,VALID,0,
2014-08-02, 01:29:05,VALID,1009.82,VALID,0,VALID,104,VALID,0,VALID,23.3823,VALID,192,VALID,0,
2014-08-02, 01:30:05,VALID,1009.8,VALID,0,VALID,104,VALID,0,VALID,23.4035,VALID,192,VALID,0,
2014-08-02, 01:31:05,VALID,1009.82,VALID,0,VALID,104,VALID,0,VALID,23.3823,VALID,192,VALID,0,
2014-08-02, 01:32:05,VALID,1009.81,VALID,0,VALID,104,VALID,0,VALID,23.3628,VALID,192,VALID,0,
2014-08-02, 01:33:05,VALID,1009.8,VALID,0,VALID,104,VALID,0,VALID,23.3645,VALID,192,VALID,0,
2014-08-02, 01:34:05,VALID,1009.82,VALID,0,VALID,104,VALID,0,VALID,23.3645,VALID,192,VALID,0,
2014-08-02, 01:35:05,VALID,1009.83,VALID,0,VALID,104,VALID,0,VALID,23.3238,VALID,192,VALID,0,
2014-08-02, 01:36:05,VALID,1009.8,VALID,0,VALID,104,VALID,0,VALID,23.3238,VALID,192,VALID,0,
2014-08-02, 01:37:05,VALID,1009.79,VALID,0,VALID,104,VALID,0,VALID,23.3043,VALID,192,VALID,0,
2014-08-02, 01:38:05,VALID,1009.81,VALID,0,VALID,104,VALID,0,VALID,23.3256,VALID,192,VALID,0,
2014-08-02, 01:39:05,VALID,1009.78,VALID,0,VALID,104,VALID,0,VALID,23.3256,VALID,192,VALID,0,
2014-08-02, 01:40:05,VALID,1009.81,VALID,0,VALID,104,VALID,0,VALID,23.3043,VALID,192,VALID,0,
2014-08-02, 01:41:05,VALID,1009.81,VALID,0,VALID,104,VALID,0,VALID,23.2848,VALID,192,VALID,0,
2014-08-02, 01:42:05,VALID,1009.85,VALID,0,VALID,104,VALID,0,VALID,23.3061,VALID,192,VALID,0,
2014-08-02, 01:43:05,VALID,1009.85,VALID,0,VALID,104,VALID,0,VALID,23.2866,VALID,192,VALID,0,
2014-08-02, 01:44:05,VALID,1009.84,VALID,0,VALID,104,VALID,0,VALID,23.2654,VALID,192,VALID,0,
2014-08-02, 01:45:05,VALID,1009.82,VALID,0,VALID,104,VALID,0,VALID,23.2459,VALID,192,VALID,0,
2014-08-02, 01:46:05,VALID,1009.83,VALID,0,VALID,104,VALID,0,VALID,23.2671,VALID,192,VALID,0,
2014-08-02, 01:47:05,VALID,1009.81,VALID,0,VALID,104,VALID,0,VALID,23.2459,VALID,192,VALID,0,
2014-08-02, 01:48:05,VALID,1009.75,VALID,0,VALID,104,VALID,0,VALID,23.2671,VALID,192,VALID,0,
2014-08-02, 01:49:05,VALID,1009.75,VALID,0,VALID,104,VALID,0,VALID,23.2671,VALID,192,VALID,0,
2014-08-02, 01:50:05,VALID,1009.72,VALID,0,VALID,104,VALID,0,VALID,23.2459,VALID,192,VALID,0,
2014-08-02, 01:51:05,VALID,1009.72,VALID,0,VALID,104,VALID,0,VALID,23.2459,VALID,192,VALID,0,
2014-08-02, 01:52:05,VALID,1009.67,VALID,0,VALID,104,VALID,0,VALID,23.2459,VALID,192,VALID,0,
2014-08-02, 01:53:05,VALID,1009.68,VALID,0,VALID,104,VALID,0,VALID,23.2671,VALID,192,VALID,0,
2014-08-02, 01:54:05,VALID,1009.67,VALID,0,VALID,104,VALID,0,VALID,23.2671,VALID,192,VALID,0,
2014-08-02, 01:55:05,VALID,1009.67,VALID,0,VALID,104,VALID,0,VALID,23.2459,VALID,192,VALID,0,
2014-08-02, 01:56:05,VALID,1009.64,VALID,0,VALID,104,VALID,0,VALID,23.2671,VALID,192,VALID,0,
2014-08-02, 01:57:05,VALID,1009.66,VALID,0,VALID,104,VALID,0,VALID,23.2476,VALID,192,VALID,0,
2014-08-02, 01:58:05,VALID,1009.63,VALID,0,VALID,104,VALID,0,VALID,23.2264,VALID,192,VALID,0,
2014-08-02, 01:59:05,VALID,1009.63,VALID,0,VALID,104,VALID,0,VALID,23.2069,VALID,192,VALID,0,
2014-08-02, 02:00:05,VALID,1009.62,VALID,0,VALID,104,VALID,0,VALID,23.2282,VALID,192,VALID,0,
2014-08-02, 02:01:05,VALID,1009.6,VALID,0,VALID,104,VALID,0,VALID,23.2069,VALID,192,VALID,0,
2014-08-02, 02:02:05,VALID,1009.59,VALID,0,VALID,104,VALID,0,VALID,23.2264,VALID,192,VALID,0,
2014-08-02, 02:03:05,VALID,1009.53,VALID,0,VALID,104,VALID,0,VALID,23.2264,VALID,192,VALID,0,
2014-08-02, 02:04:05,VALID,1009.5,VALID,0,VALID,104,VALID,0,VALID,23.2459,VALID,192,VALID,0,
2014-08-02, 02:05:05,VALID,1009.47,VALID,0,VALID,104,VALID,0,VALID,23.2264,VALID,192,VALID,0,
2014-08-02, 02:06:05,VALID,1009.45,VALID,0,VALID,104,VALID,0,VALID,23.2459,VALID,192,VALID,0,
2014-08-02, 02:07:05,VALID,1009.42,VALID,0,VALID,104,VALID,0,VALID,23.2476,VALID,192,VALID,0,
2014-08-02, 02:08:05,VALID,1009.45,VALID,0,VALID,104,VALID,0,VALID,23.2069,VALID,192,VALID,0,
2014-08-02, 02:09:05,VALID,1009.42,VALID,0,VALID,104,VALID,0,VALID,23.2069,VALID,192,VALID,0,
2014-08-02, 02:10:05,VALID,1009.42,VALID,0,VALID,104,VALID,0,VALID,23.2282,VALID,192,VALID,0,
2014-08-02, 02:11:05,VALID,1009.42,VALID,0,VALID,104,VALID,0,VALID,23.2282,VALID,192,VALID,0,
2014-08-02, 02:12:05,VALID,1009.41,VALID,0,VALID,104,VALID,0,VALID,23.2087,VALID,192,VALID,0,
2014-08-02, 02:13:05,VALID,1009.39,VALID,0,VALID,104,VALID,0,VALID,23.1874,VALID,192,VALID,0,
2014-08-02, 02:14:05,VALID,1009.36,VALID,0,VALID,104,VALID,0,VALID,23.1892,VALID,192,VALID,0,
2014-08-02, 02:15:05,VALID,1009.37,VALID,0,VALID,104,VALID,0,VALID,23.1892,VALID,192,VALID,0,
2014-08-02, 02:16:05,VALID,1009.36,VALID,0,VALID,104,VALID,0,VALID,23.1679,VALID,192,VALID,0,
2014-08-02, 02:17:05,VALID,1009.34,VALID,0,VALID,104,VALID,0,VALID,23.1679,VALID,192,VALID,0,
2014-08-02, 02:18:05,VALID,1009.32,VALID,0,VALID,104,VALID,0,VALID,23.1679,VALID,192,VALID,0,
2014-08-02, 02:19:05,VALID,1009.3,VALID,0,VALID,104,VALID,0,VALID,23.1679,VALID,192,VALID,0,
2014-08-02, 02:20:05,VALID,1009.29,VALID,0,VALID,104,VALID,0,VALID,23.1679,VALID,192,VALID,0,
2014-08-02, 02:21:05,VALID,1009.29,VALID,0,VALID,104,VALID,0,VALID,23.1679,VALID,192,VALID,0,
2014-08-02, 02:22:05,VALID,1009.26,VALID,0,VALID,104,VALID,0,VALID,23.1892,VALID,192,VALID,0,
2014-08-02, 02:23:05,VALID,1009.29,VALID,0,VALID,104,VALID,0,VALID,23.1485,VALID,192,VALID,0,
2014-08-02, 02:24:05,VALID,1009.26,VALID,0,VALID,104,VALID,0,VALID,23.1697,VALID,192,VALID,0,
2014-08-02, 02:25:05,VALID,1009.26,VALID,0,VALID,104,VALID,0,VALID,23.129,VALID,192,VALID,0,
2014-08-02, 02:26:05,VALID,1009.27,VALID,0,VALID,104,VALID,0,VALID,23.129,VALID,192,VALID,0,
2014-08-02, 02:27:05,VALID,1009.23,VALID,0,VALID,104,VALID,0,VALID,23.1077,VALID,192,VALID,0,
2014-08-02, 02:28:05,VALID,1009.24,VALID,0,VALID,104,VALID,0,VALID,23.129,VALID,192,VALID,0,
2014-08-02, 02:29:05,VALID,1009.25,VALID,0,VALID,104,VALID,0,VALID,23.129,VALID,192,VALID,0,
2014-08-02, 02:30:05,VALID,1009.22,VALID,0,VALID,104,VALID,0,VALID,23.1485,VALID,192,VALID,0,
2014-08-02, 02:31:05,VALID,1009.21,VALID,0,VALID,104,VALID,0,VALID,23.1502,VALID,192,VALID,0,
2014-08-02, 02:32:05,VALID,1009.23,VALID,0,VALID,104,VALID,0,VALID,23.1485,VALID,192,VALID,0,
2014-08-02, 02:33:05,VALID,1009.22,VALID,0,VALID,104,VALID,0,VALID,23.129,VALID,192,VALID,0,
2014-08-02, 02:34:05,VALID,1009.2,VALID,0,VALID,104,VALID,0,VALID,23.1502,VALID,192,VALID,0,
2014-08-02, 02:35:05,VALID,1009.21,VALID,0,VALID,104,VALID,0,VALID,23.1485,VALID,192,VALID,0,
2014-08-02, 02:36:05,VALID,1009.18,VALID,0,VALID,104,VALID,0,VALID,23.129,VALID,192,VALID,0,
2014-08-02, 02:37:05,VALID,1009.18,VALID,0,VALID,104,VALID,0,VALID,23.1095,VALID,192,VALID,0,
2014-08-02, 02:38:05,VALID,1009.2,VALID,0,VALID,104,VALID,0,VALID,23.1307,VALID,192,VALID,0,
2014-08-02, 02:39:05,VALID,1009.17,VALID,0,VALID,104,VALID,0,VALID,23.1307,VALID,192,VALID,0,
2014-08-02, 02:40:05,VALID,1009.17,VALID,0,VALID,104,VALID,0,VALID,23.09,VALID,192,VALID,0,
2014-08-02, 02:41:05,VALID,1009.17,VALID,0,VALID,104,VALID,0,VALID,23.09,VALID,192,VALID,0,
2014-08-02, 02:42:05,VALID,1009.16,VALID,0,VALID,104,VALID,0,VALID,23.1307,VALID,192,VALID,0,
2014-08-02, 02:43:05,VALID,1009.16,VALID,0,VALID,104,VALID,0,VALID,23.129,VALID,192,VALID,0,
2014-08-02, 02:44:05,VALID,1009.13,VALID,0,VALID,104,VALID,0,VALID,23.129,VALID,192,VALID,0,
2014-08-02, 02:45:05,VALID,1009.13,VALID,0,VALID,104,VALID,0,VALID,23.129,VALID,192,VALID,0,
2014-08-02, 02:46:05,VALID,1009.13,VALID,0,VALID,104,VALID,0,VALID,23.129,VALID,192,VALID,0,
2014-08-02, 02:47:05,VALID,1009.11,VALID,0,VALID,104,VALID,0,VALID,23.129,VALID,192,VALID,0,
2014-08-02, 02:48:05,VALID,1009.1,VALID,0,VALID,104,VALID,0,VALID,23.1502,VALID,192,VALID,0,
2014-08-02, 02:49:05,VALID,1009.08,VALID,0,VALID,104,VALID,0,VALID,23.1485,VALID,192,VALID,0,
2014-08-02, 02:50:05,VALID,1009.06,VALID,0,VALID,104,VALID,0,VALID,23.1485,VALID,192,VALID,0,
2014-08-02, 02:51:05,VALID,1009.04,VALID,0,VALID,104,VALID,0,VALID,23.1485,VALID,192,VALID,0,
2014-08-02, 02:52:05,VALID,1009.04,VALID,0,VALID,104,VALID,0,VALID,23.1502,VALID,192,VALID,0,
2014-08-02, 02:53:05,VALID,1009.05,VALID,0,VALID,104,VALID,0,VALID,23.1095,VALID,192,VALID,0,
2014-08-02, 02:54:05,VALID,1009.04,VALID,0,VALID,104,VALID,0,VALID,23.1095,VALID,192,VALID,0,
2014-08-02, 02:55:05,VALID,1009.02,VALID,0,VALID,104,VALID,0.112112,VALID,23.1095,VALID,192,VALID,0,
2014-08-02, 02:56:05,VALID,1009.03,VALID,0,VALID,104,VALID,0.112112,VALID,23.09,VALID,192,VALID,0,
2014-08-02, 02:57:05,VALID,1009.03,VALID,0,VALID,104,VALID,0.112112,VALID,23.0688,VALID,192,VALID,0,
2014-08-02, 02:58:05,VALID,1009.04,VALID,0,VALID,104,VALID,0.112112,VALID,23.0705,VALID,192,VALID,0,
2014-08-02, 02:59:05,VALID,1009.04,VALID,0,VALID,104,VALID,0.112112,VALID,23.0493,VALID,192,VALID,0,
2014-08-02, 03:00:04,VALID,1009.05,VALID,0,VALID,104,VALID,0.112112,VALID,23.0511,VALID,192,VALID,0,
2014-08-02, 03:01:04,VALID,1009.07,VALID,0,VALID,104,VALID,0.112112,VALID,23.0493,VALID,192,VALID,0,
2014-08-02, 03:02:04,VALID,1009.08,VALID,0,VALID,104,VALID,0.112112,VALID,23.0705,VALID,192,VALID,0,
2014-08-02, 03:03:04,VALID,1009.12,VALID,0,VALID,104,VALID,0.112112,VALID,23.0688,VALID,192,VALID,0,
2014-08-02, 03:04:04,VALID,1009.1,VALID,0,VALID,104,VALID,0.112112,VALID,23.09,VALID,192,VALID,0,
2014-08-02, 03:05:04,VALID,1009.12,VALID,0,VALID,104,VALID,0.112112,VALID,23.0883,VALID,192,VALID,0,
2014-08-02, 03:06:04,VALID,1009.11,VALID,0,VALID,104,VALID,0.112112,VALID,23.0688,VALID,192,VALID,0,
2014-08-02, 03:07:04,VALID,1009.14,VALID,0,VALID,104,VALID,0.112112,VALID,23.1095,VALID,192,VALID,0,
2014-08-02, 03:08:04,VALID,1009.11,VALID,0,VALID,104,VALID,0.112112,VALID,23.0688,VALID,192,VALID,0,
2014-08-02, 03:09:04,VALID,1009.13,VALID,0,VALID,104,VALID,0.112112,VALID,23.0688,VALID,192,VALID,0,
2014-08-02, 03:10:04,VALID,1009.1,VALID,0,VALID,104,VALID,0.112112,VALID,23.0688,VALID,192,VALID,0,
2014-08-02, 03:11:04,VALID,1009.13,VALID,0,VALID,104,VALID,0,VALID,23.0528,VALID,192,VALID,0,
2014-08-02, 03:12:04,VALID,1009.15,VALID,0,VALID,104,VALID,0,VALID,23.0316,VALID,192,VALID,0,
2014-08-02, 03:13:04,VALID,1009.15,VALID,0,VALID,104,VALID,0,VALID,23.0316,VALID,192,VALID,0,
2014-08-02, 03:14:04,VALID,1009.2,VALID,0,VALID,104,VALID,0,VALID,23.0528,VALID,192,VALID,0,
2014-08-02, 03:15:04,VALID,1009.21,VALID,0,VALID,104,VALID,0,VALID,23.0528,VALID,192,VALID,0,
2014-08-02, 03:16:04,VALID,1009.22,VALID,0,VALID,104,VALID,0,VALID,23.0723,VALID,192,VALID,0,
2014-08-02, 03:17:04,VALID,1009.24,VALID,0,VALID,104,VALID,0,VALID,23.0723,VALID,192,VALID,0,
2014-08-02, 03:18:04,VALID,1009.26,VALID,0,VALID,104,VALID,0,VALID,23.0723,VALID,192,VALID,0,
2014-08-02, 03:19:04,VALID,1009.25,VALID,0,VALID,104,VALID,0,VALID,23.0511,VALID,192,VALID,0,
2014-08-02, 03:20:04,VALID,1009.26,VALID,0,VALID,104,VALID,0,VALID,23.0316,VALID,192,VALID,0,
2014-08-02, 03:21:04,VALID,1009.24,VALID,0,VALID,104,VALID,0,VALID,23.0333,VALID,192,VALID,0,
2014-08-02, 03:22:04,VALID,1009.29,VALID,0,VALID,104,VALID,0,VALID,23.0138,VALID,192,VALID,0,
2014-08-02, 03:23:04,VALID,1009.27,VALID,0,VALID,104,VALID,0,VALID,22.9943,VALID,192,VALID,0,
2014-08-02, 03:24:04,VALID,1009.27,VALID,0,VALID,104,VALID,0,VALID,22.9926,VALID,192,VALID,0,
2014-08-02, 03:25:04,VALID,1009.28,VALID,0,VALID,104,VALID,0,VALID,22.9731,VALID,192,VALID,0,
2014-08-02, 03:26:04,VALID,1009.29,VALID,0,VALID,104,VALID,0,VALID,22.9536,VALID,192,VALID,0,
2014-08-02, 03:27:04,VALID,1009.25,VALID,0,VALID,104,VALID,0,VALID,22.9554,VALID,192,VALID,0,
2014-08-02, 03:28:04,VALID,1009.23,VALID,0,VALID,104,VALID,0,VALID,22.9536,VALID,192,VALID,0,
2014-08-02, 03:29:04,VALID,1009.25,VALID,0,VALID,104,VALID,0,VALID,22.9749,VALID,192,VALID,0,
2014-08-02, 03:30:04,VALID,1009.27,VALID,0,VALID,104,VALID,0,VALID,22.9749,VALID,192,VALID,0,
2014-08-02, 03:31:04,VALID,1009.25,VALID,0,VALID,104,VALID,0,VALID,22.9342,VALID,192,VALID,0,
2014-08-02, 03:32:04,VALID,1009.25,VALID,0,VALID,104,VALID,0,VALID,22.9342,VALID,192,VALID,0,
2014-08-02, 03:33:04,VALID,1009.28,VALID,0,VALID,104,VALID,0,VALID,22.9359,VALID,192,VALID,0,
2014-08-02, 03:34:04,VALID,1009.29,VALID,0,VALID,104,VALID,0,VALID,22.9359,VALID,192,VALID,0,
2014-08-02, 03:35:04,VALID,1009.28,VALID,0,VALID,104,VALID,0,VALID,22.9359,VALID,192,VALID,0,
2014-08-02, 03:36:04,VALID,1009.27,VALID,0,VALID,104,VALID,0,VALID,22.9359,VALID,192,VALID,0,
2014-08-02, 03:37:04,VALID,1009.28,VALID,0,VALID,104,VALID,0,VALID,22.9147,VALID,192,VALID,0,
2014-08-02, 03:38:04,VALID,1009.28,VALID,0,VALID,104,VALID,0,VALID,22.9147,VALID,192,VALID,0,
2014-08-02, 03:39:04,VALID,1009.25,VALID,0,VALID,104,VALID,0,VALID,22.9147,VALID,192,VALID,0,
2014-08-02, 03:40:04,VALID,1009.24,VALID,0,VALID,104,VALID,0,VALID,22.9359,VALID,192,VALID,0,
2014-08-02, 03:41:04,VALID,1009.23,VALID,0,VALID,104,VALID,0,VALID,22.9342,VALID,192,VALID,0,
2014-08-02, 03:42:04,VALID,1009.24,VALID,0,VALID,104,VALID,0.112112,VALID,22.9324,VALID,192,VALID,0,
2014-08-02, 03:43:04,VALID,1009.25,VALID,0,VALID,104,VALID,0,VALID,22.9731,VALID,192,VALID,0,
2014-08-02, 03:44:04,VALID,1009.26,VALID,0,VALID,104,VALID,0.112112,VALID,22.9519,VALID,192,VALID,0,
2014-08-02, 03:45:04,VALID,1009.29,VALID,0,VALID,104,VALID,0.112112,VALID,22.9714,VALID,192,VALID,0,
2014-08-02, 03:46:04,VALID,1009.32,VALID,0,VALID,104,VALID,0.112112,VALID,22.9714,VALID,192,VALID,0,
2014-08-02, 03:47:04,VALID,1009.33,VALID,0,VALID,104,VALID,0.112112,VALID,22.9714,VALID,192,VALID,0,
2014-08-02, 03:48:04,VALID,1009.31,VALID,0,VALID,104,VALID,0.112112,VALID,23.0121,VALID,192,VALID,0,
2014-08-02, 03:49:04,VALID,1009.32,VALID,0,VALID,104,VALID,0.112112,VALID,23.0121,VALID,192,VALID,0,
2014-08-02, 03:50:04,VALID,1009.32,VALID,0,VALID,104,VALID,0.112112,VALID,22.9909,VALID,192,VALID,0,
2014-08-02, 03:51:04,VALID,1009.33,VALID,0,VALID,104,VALID,0.112112,VALID,23.0705,VALID,192,VALID,0,
2014-08-02, 03:52:04,VALID,1009.32,VALID,0,VALID,104,VALID,0.112112,VALID,23.1485,VALID,192,VALID,0,
2014-08-02, 03:53:04,VALID,1009.32,VALID,0,VALID,104,VALID,0.112112,VALID,23.2051,VALID,192,VALID,0,
2014-08-02, 03:54:04,VALID,1009.3,VALID,0,VALID,104,VALID,0,VALID,23.2636,VALID,192,VALID,0,
2014-08-02, 03:55:04,VALID,1009.29,VALID,0,VALID,104,VALID,0.112112,VALID,23.3433,VALID,192,VALID,0,
2014-08-02, 03:56:04,VALID,1009.3,VALID,0,VALID,104,VALID,0,VALID,23.423,VALID,192,VALID,0,
2014-08-02, 03:57:04,VALID,1009.31,VALID,0,VALID,104,VALID,0,VALID,23.462,VALID,192,VALID,0,
2014-08-02, 03:58:04,VALID,1009.31,VALID,0,VALID,104,VALID,0,VALID,23.5186,VALID,192,VALID,0,
2014-08-02, 03:59:04,VALID,1009.35,VALID,0,VALID,104,VALID,0,VALID,23.5771,VALID,192,VALID,0,
2014-08-02, 04:00:04,VALID,1009.38,VALID,0,VALID,104,VALID,0,VALID,23.6161,VALID,192,VALID,0,
2014-08-02, 04:01:04,VALID,1009.38,VALID,0,VALID,104,VALID,0,VALID,23.6568,VALID,192,VALID,0,
2014-08-02, 04:02:04,VALID,1009.39,VALID,0,VALID,104,VALID,0,VALID,23.6958,VALID,192,VALID,0,